Campo, CA

7:31 PM PDT on August 24, 2019 (GMT -0700)
Campo

Weather History for KCZZ - June, 2019

Change the Weather History Date:

Tuesday, June 4, 2019

  Actual Average Record
Temperature  
Mean Temperature 68 °F 64 °F  
Max Temperature 83 °F 84 °F 101 °F (1990)
Min Temperature 52 °F 43 °F 32 °F (1971)
Degree Days  
Heating Degree Days 0 3  
Month to date heating degree days 16 13  
Since 1 June heating degree days 16 13  
Since 1 July heating degree days 3031 2940  
Cooling Degree Days 3 2  
Month to date cooling degree days 3 8  
Year to date cooling degree days 5 38  
Since 1 June cooling degree days 3 8  
Growing Degree Days 17 (Base 50)    
Moisture  
Dew Point 55 °F    
Average Humidity 70    
Maximum Humidity 100    
Minimum Humidity 40    
Precipitation  
Precipitation 0.00 in 0.01 in 0.26 in (1999)
Month to date precipitation 0.00 0.02  
Year to date precipitation 12.74 10.06  
Sea Level Pressure  
Sea Level Pressure 29.82 in    
Wind  
Wind Speed 7 mph (South)    
Max Wind Speed 21 mph    
Max Gust Speed 24 mph    
T = Trace of Precipitation, MM = Missing Value Source: NWS Daily Summary

Daily Weather History Graph

Daily Weather History Graph

Search for Another Location

Airport or City:

Astronomy

Jun. 04, 2019 Rise Set
Actual Time 5:38 AM PDT 7:50 PM PDT
Civil Twilight 5:10 AM PDT 8:18 PM PDT
Nautical Twilight 4:35 AM PDT 8:52 PM PDT
Astronomical Twilight 3:58 AM PDT 9:30 PM PDT
Moon 6:50 AM PDT (6/4) 9:23 PM PDT (6/4)
Length of Visible Light 15h 08m
Length of Day
14h 11m
New Moon, 2% of the Moon is Illuminated
Jun 4
New Moon
Jun 9
First Quarter
Jun 17
Full
Jun 25
Last Quarter
Jul 2
New

Hourly Weather History & Observations

Time (PDT) Temp. Heat Index Dew Point Humidity Pressure Visibility Wind Dir Wind Speed Gust Speed Precip Events Conditions
12:52 AM 57.0 °F - 54.0 °F 89% 29.82 in - Calm Calm - N/A   Unknown
1:52 AM 55.9 °F - 53.1 °F 90% 29.81 in - Calm Calm - N/A   Unknown
2:52 AM 55.9 °F - 53.1 °F 90% 29.80 in - Calm Calm - N/A   Unknown
3:52 AM 55.0 °F - 53.1 °F 93% 29.81 in - SSW 3.5 mph - N/A   Unknown
4:52 AM 55.9 °F - 52.0 °F 87% 29.82 in - Calm Calm - N/A   Unknown
5:52 AM 53.1 °F - 51.1 °F 93% 29.83 in - East 5.8 mph - N/A   Unknown
6:52 AM 52.0 °F - 51.1 °F 97% 29.86 in - East 3.5 mph - N/A   Unknown
7:52 AM 57.0 °F - 52.0 °F 83% 29.86 in - Calm Calm - N/A   Unknown
8:52 AM 64.9 °F - 52.0 °F 63% 29.85 in - Calm Calm - N/A   Unknown
9:52 AM 75.0 °F - 55.9 °F 51% 29.83 in - SSW 4.6 mph - N/A   Unknown
10:52 AM 81.0 °F 80.7 °F 55.0 °F 41% 29.82 in - SSW 8.1 mph - N/A   Unknown
11:52 AM 82.0 °F 81.6 °F 55.9 °F 41% 29.81 in - SSW 12.7 mph - N/A   Unknown
12:52 PM 81.0 °F 81.0 °F 57.0 °F 44% 29.81 in - SSW 19.6 mph - N/A   Unknown
1:52 PM 82.0 °F 82.1 °F 59.0 °F 45% 29.80 in - SW 16.1 mph - N/A   Unknown
2:52 PM 81.0 °F 81.3 °F 59.0 °F 47% 29.79 in - SSW 17.3 mph - N/A   Unknown
3:52 PM 79.0 °F - 59.0 °F 50% 29.78 in - SW 19.6 mph - N/A   Unknown
4:52 PM 77.0 °F - 59.0 °F 54% 29.79 in - SSW 13.8 mph - N/A   Unknown
5:52 PM 73.0 °F - 57.9 °F 59% 29.81 in - SSW 12.7 mph - N/A   Unknown
6:52 PM 70.0 °F - 57.0 °F 63% 29.82 in - SSW 5.8 mph - N/A   Unknown
7:52 PM 66.0 °F - 55.9 °F 70% 29.83 in - SW 4.6 mph - N/A   Unknown
8:52 PM 60.1 °F - 54.0 °F 80% 29.85 in - NNE 3.5 mph - N/A   Unknown
9:52 PM 59.0 °F - 54.0 °F 83% 29.86 in - NE 4.6 mph - N/A   Unknown
10:52 PM 57.0 °F - 54.0 °F 89% 29.85 in - NNE 4.6 mph - N/A   Unknown
11:52 PM 55.9 °F - 53.1 °F 90% 29.85 in - NE 4.6 mph - N/A   Unknown